Regional Weather Roundup
Issued by NWS State College, PA

Home | Current Version | Previous Version | Text Only | Print | Product List | Glossary On
Versions: 1 2 3 4 5 6 7 8 9 10 11 12 13 14 15 16 17 18 19 20 21 22 23 24 25 26 27 28 29 30 31 32 33 34 35 36 37 38 39 40 41 42 43 44 45 46 47 48 49 50
000
ASUS41 KCTP 310110
RWRCTP

REGIONAL WEATHER ROUNDUP
NATIONAL WEATHER SERVICE STATE COLLEGE PA
900 PM EDT MON MAY 30 2016

Note: "fair" indicates few or no clouds below 12,000 feet with no
significant weather and/or obstructions to visibility.

* = STATION THAT DOES NOT REPORT PRECIPITATION /E.G. RAIN...SNOW...ETC/
    THUNDER OR FOG.

PAZ002>004-007>009-013>016-020>023-029>032-310200-
WESTERN PENNSYLVANIA

CITY           SKY/WX    TMP DP  RH WIND       PRES   REMARKS
ERIE           CLEAR     72  56  57 CALM      29.97S
MEADVILLE      CLEAR     68  54  60 CALM      30.00S
FRANKLIN*      CLEAR     70  52  52 N3        30.03R
NEW CASTLE     FAIR      73  54  51 N3        30.00R
BEAVER COUNTY  NOT AVBL
BUTLER*        CLEAR     72  54  53 CALM      30.02R
PITTSBURGH INT PTCLDY    79  54  41 NE3       29.98R
PITTSBURGH     CLEAR     75  54  47 N5        29.98S
INDIANA*       CLEAR     70  59  68 CALM      30.03S
LATROBE        PTCLDY    73  59  60 CALM      30.00R
WASHINGTON CO* CLEAR     66  57  72 CALM      30.00S
$$

PAZ004>006-010>012-017>019-024>028-033>037-041-042-045-046-049>053-310200-
CENTRAL PENNSYLVANIA

CITY           SKY/WX    TMP DP  RH WIND       PRES   REMARKS
BRADFORD       CLEAR     66  52  60 NW3       30.03R
DUBOIS         CLEAR     71  52  50 N3        30.01R
CLEARFIELD     CLEAR     71  51  49 NW6       30.00R
JOHNSTOWN      CLEAR     71  52  50 N6        30.03R
ALTOONA        PTCLDY    74  61  63 SW5       30.00R
STATE COLLEGE  MOCLDY    77  55  47 W6        29.97R
WILLIAMSPORT   CLOUDY    70  63  78 E6        29.95R
SELINSGROVE    CLOUDY    68  64  87 CALM      29.97R
FT INDIANTOWN  DRIZZLE   67  67  99 S7        29.97S
CAPITAL CITY   CLOUDY    71  66  84 SE8       29.97R
HARRISBURG     MOCLDY    70  66  87 CALM      29.97R
YORK           LGT RAIN  69  66  90 E6        29.98R
$$

PAZ038>040-043-044-047-048-054-055-060>062-067>071-310200-
EASTERN PENNSYLVANIA

CITY           SKY/WX    TMP DP  RH WIND       PRES   REMARKS
SCRANTON       CLOUDY    67  66  97 CALM      29.97R FOG
MOUNT POCONO   CLOUDY    63  60  90 NW6       29.99F
ALLENTOWN      CLOUDY    75  61  61 SE3       29.95F
QUAKERTOWN*    CLOUDY    73  68  83 SW6       29.98R
READING          N/A     71  66  84 SW5       29.95S
LANCASTER      TSTM      67  64  90 E8        29.99R
COATESVILLE    CLOUDY    72  68  88 CALM      30.00R
POTTSTOWN      CLOUDY    73  69  87 S5        29.99R
BLUE BELL      CLOUDY    72  68  88 S5        29.96F
DOYLESTOWN     CLOUDY    71  67  87 S7        29.96S
WILLOW GROVE   NOT AVBL
NORTH PHILA    CLOUDY    74  68  81 S8        29.99R
PHILADELPHIA   CLOUDY    73  68  84 S8        29.98R
$$




USA.gov is the U.S. government's official web portal to all federal, state and local government web resources and services.